FW2417 Weather Reports


Display with metric or nautical units.
time (UTC)temp
F
wind
direction
speed
MPH
gust
MPH
rain 1hr
in
rain 24hr
in
rain mn
in
humidity
%
barometer
mb
20260905131601 93 231 0.0 0.0 0.00 0.00 0.00 40 1019.4
20260905130049 94 225 0.0 2.0 0.00 0.00 0.00 38 1019.8
20260905124549 94 134 0.0 1.0 0.00 0.00 0.00 34 1019.6
20260905123138 94 136 0.0 4.0 0.00 0.00 0.00 36 1019.6
20260905121557 92 129 0.0 0.0 0.00 0.00 0.00 40 1019.7
20260905120048 91 74 0.0 1.0 0.00 0.00 0.00 47 1019.8
20260905114548 90 82 0.0 1.0 0.00 0.00 0.00 50 1019.9
20260905113041 89 130 0.0 3.0 0.00 0.00 0.00 50 1020.0
20260905111512 89 89 0.0 1.0 0.00 0.00 0.00 49 1020.2
20260905110004 88 131 0.0 4.0 0.00 0.00 0.00 52 1020.3
20260905104531 87 92 1.0 6.0 0.00 0.00 0.00 53 1020.3
20260905103040 87 86 3.0 6.0 0.00 0.00 0.00 51 1020.3
20260905101615 87 79 1.0 5.0 0.00 0.00 0.00 53 1020.4
20260905100109 88 151 0.0 2.0 0.00 0.00 0.00 51 1020.4
20260905094559 88 158 0.0 2.0 0.00 0.00 0.00 53 1020.3
20260905093049 86 212 0.0 2.0 0.00 0.00 0.00 57 1020.4
20260905091554 84 135 0.0 2.0 0.00 0.00 0.00 62 1020.3
20260905090047 82 206 0.0 3.0 0.00 0.00 0.00 66 1020.2
20260905084600 82 141 0.0 4.0 0.00 0.00 0.00 65 1020.1
20260905083050 81 242 0.0 1.0 0.00 0.00 0.00 65 1019.7
20260905081547 80 130 0.0 3.0 0.00 0.00 0.00 68 1020.3
20260905080111 81 252 0.0 1.0 0.00 0.00 0.00 67 1019.8
20260905074551 80 236 0.0 5.0 0.00 0.00 0.00 68 1019.8
20260905073048 81 217 0.0 4.0 0.00 0.00 0.00 68 1020.2
20260905071547 80 228 0.0 2.0 0.00 0.00 0.00 68 1019.5
20260905070053 80 213 1.0 4.0 0.00 0.00 0.00 67 1019.3
20260905064551 81 248 0.0 4.0 0.00 0.00 0.00 66 1019.0
20260905063017 81 232 0.0 1.0 0.00 0.00 0.00 65 1018.6
20260905061555 81 232 0.0 1.0 0.00 0.00 0.00 66 1018.8
20260905060036 80 232 0.0 1.0 0.00 0.00 0.00 68 1018.3
20260905054546 82 229 0.0 1.0 0.00 0.00 0.00 63 1018.1
20260905053033 84 228 0.0 2.0 0.00 0.00 0.00 50 1017.7
20260905051507 83 120 0.0 1.0 0.00 0.00 0.00 54 1017.6
20260905050113 82 64 0.0 1.0 0.00 0.00 0.00 63 1017.5
20260905044615 83 74 0.0 1.0 0.00 0.00 0.00 62 1017.6
20260905043115 83 93 0.0 0.0 0.00 0.00 0.00 62 1017.6
20260905041611 84 94 0.0 1.0 0.00 0.00 0.00 60 1017.3
20260905040105 83 93 0.0 1.0 0.00 0.00 0.00 62 1017.4
20260905034611 84 96 0.0 1.0 0.00 0.00 0.00 59 1017.2
20260905033107 84 107 0.0 1.0 0.00 0.00 0.00 60 1017.3
20260905031609 84 256 0.0 0.0 0.00 0.00 0.00 62 1017.6
20260905030106 85 256 0.0 1.0 0.00 0.00 0.00 59 1017.6
20260905024555 84 256 0.0 1.0 0.00 0.00 0.00 59 1017.9
20260905023055 84 256 0.0 1.0 0.00 0.00 0.00 60 1017.8
20260905021559 84 132 0.0 1.0 0.00 0.00 0.00 61 1017.8
20260905020055 85 252 0.0 1.0 0.00 0.00 0.00 62 1018.0
20260905014555 85 53 0.0 1.0 0.00 0.00 0.00 58 1017.9
20260905013053 85 52 0.0 0.0 0.00 0.00 0.00 59 1018.1
20260905011611 85 53 0.0 0.0 0.00 0.00 0.00 58 1018.3
20260905010042 85 53 0.0 1.0 0.00 0.00 0.00 58 1018.2
20260905004548 85 249 0.0 1.0 0.00 0.00 0.00 58 1018.5
20260905003011 86 249 0.0 2.0 0.00 0.00 0.00 57 1018.5
20260905001612 86 231 1.0 6.0 0.00 0.00 0.00 57 1018.7
20260905000103 87 215 0.0 2.0 0.00 0.00 0.00 56 1018.5
20260904234557 87 255 0.0 1.0 0.00 0.00 0.00 56 1018.6
20260904233103 87 255 0.0 1.0 0.00 0.00 0.00 56 1018.4
20260904231553 88 255 0.0 2.0 0.00 0.00 0.00 55 1018.7
20260904230046 88 217 0.0 2.0 0.00 0.00 0.00 55 1018.5
20260904224545 88 188 0.0 2.0 0.00 0.00 0.00 55 1018.4
20260904223046 88 199 0.0 2.0 0.00 0.00 0.00 55 1018.5
20260904221545 88 148 0.0 2.0 0.00 0.00 0.00 55 1018.2
20260904220017 88 181 0.0 3.0 0.00 0.00 0.00 55 1018.3
20260904214503 88 211 0.0 2.0 0.00 0.00 0.00 55 1018.3
20260904213109 88 208 1.0 3.0 0.00 0.00 0.00 55 1018.3
20260904211602 88 246 1.0 4.0 0.00 0.00 0.00 55 1018.5
20260904210106 89 231 2.0 6.0 0.00 0.00 0.00 55 1018.6
20260904204604 89 209 0.0 4.0 0.00 0.00 0.00 55 1018.5
20260904203103 89 241 0.0 4.0 0.00 0.00 0.00 55 1018.5
20260904201627 90 210 0.0 3.0 0.00 0.00 0.00 55 1018.3
20260904200107 90 212 1.0 5.0 0.00 0.00 0.00 54 1018.2
20260904194602 91 216 0.0 3.0 0.00 0.00 0.00 53 1018.1
20260904193052 91 229 2.0 6.0 0.00 0.00 0.00 53 1017.8
20260904191553 91 245 1.0 5.0 0.00 0.00 0.00 53 1017.6
20260904190047 91 222 1.0 7.0 0.00 0.00 0.00 53 1017.5
20260904184551 91 238 0.0 4.0 0.00 0.00 0.00 53 1017.5
20260904183058 92 226 1.0 8.0 0.00 0.00 0.00 52 1017.4
20260904181547 94 248 2.0 7.0 0.00 0.00 0.00 48 1017.4
20260904180016 96 293 0.0 7.0 0.00 0.00 0.00 43 1017.2
20260904174543 99 219 1.0 8.0 0.00 0.00 0.00 41 1017.1
20260904173038 103 249 0.0 3.0 0.00 0.00 0.00 28 1017.1
20260904171513 104 292 0.0 2.0 0.00 0.00 0.00 27 1017.0
20260904170007 105 332 0.0 2.0 0.00 0.00 0.00 25 1017.0
20260904164502 105 225 0.0 1.0 0.00 0.00 0.00 25 1017.1
20260904163110 105 225 0.0 1.0 0.00 0.00 0.00 25 1017.2
20260904161616 105 329 0.0 2.0 0.00 0.00 0.00 26 1017.3
20260904160057 104 253 0.0 4.0 0.00 0.00 0.00 26 1017.4
20260904154555 105 259 0.0 2.0 0.00 0.00 0.00 26 1017.4
20260904153003 103 351 0.0 3.0 0.00 0.00 0.00 27 1017.5
20260904151501 104 229 0.0 3.0 0.00 0.00 0.00 27 1017.6
20260904150113 103 231 0.0 2.0 0.00 0.00 0.00 28 1017.9
20260904144622 102 346 0.0 3.0 0.00 0.00 0.00 29 1018.1
20260904143106 102 30 0.0 2.0 0.00 0.00 0.00 30 1018.4
20260904141605 101 288 0.0 5.0 0.00 0.00 0.00 31 1018.6
20260904140055 99 20 0.0 2.0 0.00 0.00 0.00 33 1018.8
20260904134553 98 96 0.0 5.0 0.00 0.00 0.00 36 1019.0
20260904133047 97 82 0.0 2.0 0.00 0.00 0.00 38 1019.1